Location: Coupvray
(48.8929°N, 2.7967°E)
Time: 10:44:34
(UTC+00:00)

Cosmos 724 - Pass Details

Date: 14 July 2020
Orbit: 859 x 936 km, 65.6° (Epoch: 05 August)

Event Time Altitude Azimuth Distance (km) Brightness Sun altitude
Exits shadow 00:59:22 27° 221° (SW) 1,579 5.1 -18.0°
Maximum altitude 01:02:37 83° 307° (NW) 876 4.2 -17.9°
Drops below altitude 10° 01:08:29 10° 37° (NE) 2,531 7.8 -17.6°
Sets 01:11:00 0° 38° (NE) 3,483 8.8 -17.5°
